Weather History for Selawik, AK

Change the Weather History Date:

Wednesday, December 19, 2012

  Actual Average Record
Temperature  
Mean Temperature -21 °F -  
Max Temperature -13 °F 0 °F 35 °F (1998)
Min Temperature -29 °F -8 °F -45 °F (2001)
Degree Days  
Heating Degree Days 86    
Moisture  
Dew Point -25 °F    
Average Humidity 66    
Maximum Humidity 84    
Minimum Humidity 53    
Precipitation  
Precipitation 0.00 in - - ()
Sea Level Pressure  
Sea Level Pressure 30.42 in    
Wind  
Wind Speed 11 mph (WNW)    
Max Wind Speed 20 mph    
Max Gust Speed 25 mph    
Visibility 8 miles    
Events      
Averages and records for this station are not official NWS values.
T = Trace of Precipitation, MM = Missing Value Source: NWS Daily Summary

Daily Weather History Graph

Daily Weather History Graph

Search for Another Location

Airport:

Trip Planner

Search our weather history database for the weather conditions in past years. The results will help you decide how hot, cold, wet, or windy it might be!

Date:

Astronomy

Dec. 19, 2012 Rise Set
Actual Time 12:33 PM AKST 2:41 PM AKST
Civil Twilight 10:39 AM AKST 4:35 PM AKST
Nautical Twilight 9:19 AM AKST 5:55 PM AKST
Astronomical Twilight 8:12 AM AKST 7:02 PM AKST
Moon 1:00 PM AKST (12/19) 12:53 AM AKST (12/19)
Length of Visible Light 5h 55m
Length of Day
2h 07m
Waxing Crescent, 46% of the Moon is Illuminated
Dec 19
Waxing Crescent
Dec 19
First Quarter
Dec 28
Full
Jan 4
Last Quarter
Jan 11
New

Hourly Weather History & Observations

Time (AKST) Temp. Windchill Dew Point Humidity Pressure Visibility Wind Dir Wind Speed Gust Speed Precip Events Conditions
12:16 AM -13.0 °F -34.3 °F -18.4 °F 77% 30.14 in 2.5 mi WSW 12.7 mph - N/A   Overcast
12:36 AM -14.8 °F -38.3 °F -25.6 °F 58% 30.15 in 2.5 mi WSW 15.0 mph 20.7 mph N/A   Overcast
12:56 AM -14.8 °F -39.8 °F -23.8 °F 64% 30.15 in 2.5 mi West 17.3 mph 21.9 mph N/A   Overcast
1:16 AM -14.8 °F -39.8 °F -20.2 °F 77% 30.16 in 3.0 mi West 17.3 mph 25.3 mph N/A   Overcast
1:36 AM -14.8 °F -38.3 °F -25.6 °F 58% 30.18 in 3.0 mi WSW 15.0 mph 21.9 mph N/A   Overcast
1:56 AM -14.8 °F -39.1 °F -20.2 °F 77% 30.19 in 3.0 mi West 16.1 mph 21.9 mph N/A   Overcast
2:16 AM -14.8 °F -39.8 °F -27.4 °F 53% 30.19 in 3.0 mi West 17.3 mph 24.2 mph N/A   Overcast
2:36 AM -16.6 °F -43.5 °F -23.8 °F 70% 30.20 in 3.0 mi West 19.6 mph 24.2 mph N/A   Overcast
2:56 AM -16.6 °F -39.8 °F -23.8 °F 70% 30.21 in 3.0 mi WSW 13.8 mph - N/A   Overcast
3:16 AM -16.6 °F -40.6 °F -27.4 °F 58% 30.22 in 2.0 mi WSW 15.0 mph 20.7 mph N/A   Overcast
3:36 AM -16.6 °F -40.6 °F -20.2 °F 84% 30.24 in 2.0 mi West 15.0 mph 20.7 mph N/A   Overcast
3:56 AM -16.6 °F -42.1 °F -27.4 °F 58% 30.24 in 2.5 mi West 17.3 mph 23.0 mph N/A   Overcast
4:16 AM -16.6 °F -42.1 °F -23.8 °F 70% 30.25 in 2.5 mi West 17.3 mph 21.9 mph N/A   Overcast
4:36 AM -16.6 °F -40.6 °F -25.6 °F 64% 30.26 in 3.0 mi WSW 15.0 mph 20.7 mph N/A   Overcast
4:56 AM -16.6 °F -38.9 °F -23.8 °F 70% 30.27 in 2.0 mi WSW 12.7 mph 19.6 mph N/A   Overcast
5:16 AM -16.6 °F -40.6 °F -27.4 °F 58% 30.29 in 2.5 mi WSW 15.0 mph 21.9 mph N/A   Overcast
5:36 AM - - - N/A% 30.29 in 2.5 mi WSW 15.0 mph 21.9 mph N/A   Overcast
5:56 AM -16.6 °F -39.8 °F -25.6 °F 64% 30.31 in 2.5 mi WSW 13.8 mph 19.6 mph N/A   Overcast
6:16 AM -16.6 °F -38.9 °F -27.4 °F 58% 30.32 in 3.0 mi WSW 12.7 mph - N/A   Overcast
6:36 AM - - - N/A% 30.32 in 3.0 mi WSW 12.7 mph - N/A   Overcast
6:56 AM - - - N/A% 30.32 in 5.0 mi WSW 11.5 mph 19.6 mph N/A   Partly Cloudy
7:16 AM -16.6 °F -37.9 °F -25.6 °F 64% 30.34 in 5.0 mi WSW 11.5 mph 18.4 mph N/A   Clear
7:36 AM -16.6 °F -38.9 °F -23.8 °F 70% 30.35 in 9.0 mi WSW 12.7 mph 19.6 mph N/A   Clear
7:56 AM - - - N/A% 30.35 in 10.0 mi West 12.7 mph - N/A   Clear
8:16 AM -16.6 °F -39.8 °F -22.0 °F 76% 30.36 in 10.0 mi West 13.8 mph - N/A   Clear
8:36 AM -16.6 °F -39.8 °F -27.4 °F 58% 30.36 in 10.0 mi WSW 13.8 mph 18.4 mph N/A   Clear
8:56 AM - - - N/A% 30.37 in 10.0 mi West 12.7 mph - N/A   Clear
9:16 AM -16.6 °F -38.9 °F -23.8 °F 70% 30.38 in 10.0 mi West 12.7 mph - N/A   Clear
9:36 AM -16.6 °F -37.9 °F -29.2 °F 53% 30.39 in 10.0 mi WSW 11.5 mph - N/A   Clear
9:56 AM -16.6 °F -39.8 °F -23.8 °F 70% 30.40 in 10.0 mi West 13.8 mph - N/A   Clear
10:16 AM -16.6 °F -38.9 °F -25.6 °F 64% 30.40 in 10.0 mi WSW 12.7 mph - N/A   Clear
10:36 AM -16.6 °F -37.9 °F -25.6 °F 64% 30.41 in 10.0 mi West 11.5 mph - N/A   Clear
10:56 AM - - - N/A% 30.41 in 10.0 mi WSW 9.2 mph - N/A   Clear
11:16 AM -16.6 °F -35.7 °F -27.4 °F 58% 30.42 in 10.0 mi West 9.2 mph - N/A   Clear
11:36 AM -16.6 °F -32.9 °F -25.6 °F 64% 30.43 in 10.0 mi West 6.9 mph - N/A   Clear
11:56 AM -18.4 °F -35.1 °F -27.4 °F 63% 30.44 in 10.0 mi WNW 6.9 mph - N/A   Clear
12:16 PM -18.4 °F -33.4 °F - N/A% 30.44 in 10.0 mi WNW 5.8 mph - N/A   Clear
12:36 PM -20.2 °F -30.9 °F - N/A% 30.46 in 10.0 mi NW 3.5 mph - N/A   Clear
12:56 PM -23.8 °F - - N/A% 30.47 in 10.0 mi Calm Calm - N/A   Clear
1:16 PM -23.8 °F - - N/A% 30.47 in 10.0 mi Calm Calm - N/A   Clear
1:36 PM -23.8 °F - - N/A% 30.47 in 10.0 mi Calm Calm - N/A   Clear
1:56 PM -22.0 °F - -29.2 °F 69% 30.47 in 10.0 mi Calm Calm - N/A   Clear
2:16 PM -22.0 °F - - N/A% 30.48 in 10.0 mi Calm Calm - N/A   Clear
2:36 PM -22.0 °F - - N/A% 30.49 in 10.0 mi Calm Calm - N/A   Clear
2:56 PM -23.8 °F - - N/A% 30.50 in 10.0 mi Calm Calm - N/A   Clear
3:16 PM -23.8 °F - - N/A% 30.51 in 3.0 mi Calm Calm - N/A   Clear
3:36 PM -23.8 °F -35.0 °F - N/A% 30.51 in 10.0 mi South 3.5 mph - N/A   Clear
3:56 PM -23.8 °F - - N/A% 30.52 in 6.0 mi Calm Calm - N/A   Clear
4:16 PM -23.8 °F - -27.4 °F 83% 30.53 in 10.0 mi Calm Calm - N/A   Clear
4:36 PM -27.4 °F - - N/A% 30.54 in 10.0 mi Calm Calm - N/A   Clear
4:56 PM -27.4 °F -39.2 °F - N/A% 30.53 in 10.0 mi NE 3.5 mph - N/A   Clear
5:16 PM -27.4 °F -39.2 °F - N/A% 30.53 in 10.0 mi NE 3.5 mph - N/A   Clear
5:36 PM -27.4 °F -41.9 °F - N/A% 30.54 in 10.0 mi ENE 4.6 mph - N/A   Clear
5:56 PM -27.4 °F -39.2 °F - N/A% 30.55 in 10.0 mi NNE 3.5 mph - N/A   Clear
6:16 PM -29.2 °F -44.0 °F - N/A% 30.55 in 10.0 mi NNE 4.6 mph - N/A   Clear
6:36 PM -29.2 °F -41.2 °F - N/A% 30.56 in 10.0 mi NNE 3.5 mph - N/A   Clear
6:56 PM -29.2 °F -44.0 °F - N/A% 30.56 in 10.0 mi NE 4.6 mph - N/A   Clear
7:16 PM -27.4 °F -41.9 °F - N/A% 30.58 in 10.0 mi ENE 4.6 mph - N/A   Clear
7:36 PM -27.4 °F -41.9 °F - N/A% 30.59 in 10.0 mi ENE 4.6 mph - N/A   Clear
7:56 PM -27.4 °F -45.9 °F - N/A% 30.59 in 10.0 mi ENE 6.9 mph - N/A   Clear
8:16 PM -27.4 °F -45.9 °F - N/A% 30.58 in 10.0 mi NE 6.9 mph - N/A   Clear
8:36 PM -27.4 °F -44.1 °F - N/A% 30.58 in 10.0 mi NE 5.8 mph - N/A   Clear
8:56 PM -27.4 °F -45.9 °F - N/A% 30.58 in 10.0 mi ENE 6.9 mph - N/A   Clear
9:16 PM -27.4 °F -47.6 °F - N/A% 30.58 in 10.0 mi ENE 8.1 mph - N/A   Clear
9:36 PM -29.2 °F -49.7 °F - N/A% 30.58 in 10.0 mi NE 8.1 mph - N/A   Clear
9:56 PM -29.2 °F -51.2 °F - N/A% 30.59 in 10.0 mi NE 9.2 mph - N/A   Clear
10:16 PM -29.2 °F -48.1 °F - N/A% 30.60 in 10.0 mi NE 6.9 mph - N/A   Clear
10:36 PM -29.2 °F -48.1 °F - N/A% 30.61 in 10.0 mi NE 6.9 mph - N/A   Clear
10:56 PM -27.4 °F -45.9 °F - N/A% 30.61 in 10.0 mi ENE 6.9 mph - N/A   Clear
11:16 PM -27.4 °F -50.3 °F - N/A% 30.62 in 10.0 mi ENE 10.4 mph - N/A   Clear
11:36 PM -27.4 °F -45.9 °F - N/A% 30.62 in 10.0 mi ENE 6.9 mph - N/A   Clear
11:56 PM -27.4 °F -49.0 °F - N/A% 30.62 in 10.0 mi ENE 9.2 mph - N/A   Clear